,

(GMT )
P11-b Sea

Weather History for EHPG - December, 2013

Change the Weather History Date:

Sunday, December 22, 2013

  Actual Average Record
Temperature  
Mean Temperature 48 °F -  
Max Temperature 50 °F - - ()
Min Temperature 46 °F - - ()
Degree Days  
Heating Degree Days 17    
Moisture  
Dew Point 43 °F    
Average Humidity 75    
Maximum Humidity 93    
Minimum Humidity 51    
Precipitation  
Precipitation 0.00 in - - ()
Sea Level Pressure  
Sea Level Pressure 29.76 in    
Wind  
Wind Speed 28 mph ()    
Max Wind Speed 40 mph    
Max Gust Speed -    
Visibility 7.3 miles    
Events Rain    
T = Trace of Precipitation, MM = Missing Value Source: Averaged Metar Reports

Daily Weather History Graph

Daily Weather History Graph

Search for Another Location

Airport or City:

Trip Planner

Search our weather history database for the weather conditions in past years. The results will help you decide how hot, cold, wet, or windy it might be!

Date:

Astronomy

Dec. 22, 2013 Rise Set
Actual Time 8:54 AM CET 4:35 PM CET
Civil Twilight 8:13 AM CET 5:17 PM CET
Nautical Twilight 7:29 AM CET 6:01 PM CET
Astronomical Twilight 6:47 AM CET 6:43 PM CET
Moon 10:10 PM CET (12/22) 11:10 AM CET (12/22)
Length of Visible Light 9h 03m
Length of Day
7h 40m
Waning Gibbous, 79% of the Moon is Illuminated
Dec 22
Waning Gibbous
Dec 25
Last Quarter
Jan 1
New
Jan 8
First Quarter
Jan 16
Full

Hourly Weather History & Observations

Time (CET) Temp. Dew Point Humidity Pressure Visibility Wind Dir Wind Speed Gust Speed Precip Events Conditions
12:00 AM 50 °F 46 °F 81% 29.72 in 6 mi 40.3 mph - -   Partly Cloudy
12:25 AM 50.0 °F 46.4 °F 87% 29.71 in 6.2 mi North - - N/A   Mostly Cloudy
12:55 AM 51.8 °F 46.4 °F 82% 29.74 in 5.6 mi North - - N/A   Mostly Cloudy
1:00 AM 51 °F 47 °F 83% 29.75 in 6 mi 35.8 mph - -   Mist
1:25 AM 51.8 °F 48.2 °F 88% 29.77 in 5.6 mi North - - N/A   Mostly Cloudy
1:55 AM 51.8 °F 44.6 °F 76% 29.77 in 6.2 mi North - - N/A   Partly Cloudy
2:00 AM 52 °F 46 °F 74% 29.78 in 8 mi 31.3 mph - -   Scattered Clouds
2:25 AM 51.8 °F 44.6 °F 76% 29.80 in 6.2 mi North - - N/A   Partly Cloudy
2:55 AM 51.8 °F 44.6 °F 76% 29.80 in 6.2 mi North - - N/A   Unknown
3:00 AM 51 °F 45 °F 74% 29.82 in 8 mi 26.8 mph - -  
3:25 AM 51.8 °F 44.6 °F 76% 29.80 in 6.2 mi North - - N/A   Unknown
3:55 AM 50.0 °F 42.8 °F 76% 29.80 in 6.2 mi North - - N/A   Unknown
4:00 AM 51 °F 44 °F 68% 29.83 in 8 mi 31.3 mph - -   Scattered Clouds
4:25 AM 50.0 °F 44.6 °F 82% 29.83 in 6.2 mi North - - N/A   Partly Cloudy
4:55 AM 50.0 °F 42.8 °F 76% 29.83 in 6.2 mi North - - N/A   Partly Cloudy
5:00 AM 50 °F 41 °F 63% 29.83 in 9 mi 29.1 mph - -   Scattered Clouds
5:25 AM 50.0 °F 41.0 °F 71% 29.83 in 6.2 mi North - - N/A   Unknown
5:55 AM 50.0 °F 42.8 °F 76% 29.80 in 6.2 mi North - - N/A   Unknown
6:00 AM 50 °F 42 °F 67% 29.82 in 8 mi 29.1 mph - -   Scattered Clouds
6:25 AM 50.0 °F 42.8 °F 76% 29.80 in 6.2 mi North - - N/A   Unknown
6:55 AM 50.0 °F 44.6 °F 82% 29.80 in 6.2 mi North - - N/A   Unknown
7:00 AM 50 °F 44 °F 71% 29.80 in 7 mi 29.1 mph - -   Partly Cloudy
7:25 AM 50.0 °F 42.8 °F 76% 29.77 in 6.2 mi North - - N/A   Unknown
7:55 AM 50.0 °F 46.4 °F 87% 29.77 in 5.6 mi North - - N/A   Partly Cloudy
8:00 AM 49 °F 47 °F 88% 29.78 in 6 mi 26.8 mph - -   Scattered Clouds
8:25 AM 48.2 °F 46.4 °F 93% 29.77 in 6.2 mi North - - N/A   Mostly Cloudy
8:55 AM 48.2 °F 46.4 °F 93% 29.74 in 6.2 mi North - - N/A   Mostly Cloudy
9:00 AM 49 °F 46 °F 85% 29.76 in 7 mi 29.1 mph - -   Scattered Clouds
9:25 AM 48.2 °F 46.4 °F 93% 29.74 in 6.2 mi North - - N/A   Mostly Cloudy
9:55 AM 50.0 °F 46.4 °F 87% 29.74 in 6.2 mi North - - N/A   Mostly Cloudy
10:00 AM 49 °F 46 °F 83% 29.73 in 7 mi 31.3 mph - -   Scattered Clouds
10:25 AM 50.0 °F 46.4 °F 87% 29.71 in 6.2 mi North - - N/A   Mostly Cloudy
10:55 AM 50.0 °F 44.6 °F 82% 29.71 in 6.2 mi North - - N/A   Mostly Cloudy
11:00 AM 49 °F 46 °F 84% 29.70 in 6 mi 33.6 mph - -   Scattered Clouds
11:25 AM 50.0 °F 46.4 °F 87% 29.71 in 6.2 mi North - - N/A Rain Light Rain
11:55 AM 48.2 °F 44.6 °F 87% 29.68 in 3.1 mi North - - N/A Rain Light Rain
12:00 PM 48 °F 43 °F 76% 29.73 in 7 mi 33.6 mph - - Rain Light Rain Showers
12:25 PM 50.0 °F 46.4 °F 87% 29.71 in 5.0 mi North - - N/A   Mostly Cloudy
12:55 PM 50.0 °F 42.8 °F 76% 29.71 in 6.2 mi North - - N/A   Mostly Cloudy
1:00 PM 50 °F 43 °F 69% 29.72 in 11 mi 33.6 mph - - Rain Rain
1:25 PM 50.0 °F 42.8 °F 76% 29.68 in 6.2 mi North - - N/A   Partly Cloudy
1:55 PM 50.0 °F 44.6 °F 82% 29.71 in 6.2 mi North - - N/A   Unknown
2:00 PM 49 °F 44 °F 75% 29.72 in 9 mi 29.1 mph - -   Scattered Clouds
2:25 PM 50.0 °F 42.8 °F 76% 29.71 in 6.2 mi North - - N/A   Unknown
2:55 PM 50.0 °F 42.8 °F 76% 29.71 in 6.2 mi North - - N/A   Unknown
3:00 PM 49 °F 43 °F 74% 29.74 in 10 mi 29.1 mph - -   Scattered Clouds
3:25 PM 50.0 °F 42.8 °F 76% 29.71 in 6.2 mi North - - N/A   Partly Cloudy
3:55 PM 50.0 °F 42.8 °F 76% 29.74 in 6.2 mi North - - N/A   Partly Cloudy
4:00 PM 49 °F 42 °F 71% 29.75 in 12 mi 29.1 mph - -   Scattered Clouds
4:25 PM 50.0 °F 42.8 °F 76% 29.74 in 6.2 mi North - - N/A   Partly Cloudy
4:55 PM 50.0 °F 42.8 °F 76% 29.74 in 6.2 mi North - - N/A   Partly Cloudy
5:00 PM 49 °F 42 °F 69% 29.75 in 11 mi 26.8 mph - -   Scattered Clouds
5:25 PM 50.0 °F 42.8 °F 76% 29.74 in 6.2 mi North - - N/A   Unknown
5:55 PM 50.0 °F 41.0 °F 71% 29.74 in 6.2 mi North - - N/A   Unknown
6:00 PM 50 °F 40 °F 59% 29.77 in 14 mi 29.1 mph - -   Scattered Clouds
6:25 PM 50.0 °F 39.2 °F 66% 29.77 in 6.2 mi North - - N/A   Unknown
6:55 PM 50.0 °F 39.2 °F 66% 29.77 in 6.2 mi North - - N/A   Partly Cloudy
7:00 PM 50 °F 41 °F 61% 29.79 in 16 mi 26.8 mph - -   Partly Cloudy
7:25 PM 50.0 °F 39.2 °F 66% 29.77 in 6.2 mi North - - N/A   Partly Cloudy
7:55 PM 50.0 °F 35.6 °F 58% 29.77 in 6.2 mi North - - N/A   Partly Cloudy
8:00 PM 49 °F 37 °F 52% 29.78 in 19 mi 31.3 mph - -   Scattered Clouds
8:25 PM 50.0 °F 39.2 °F 66% 29.77 in 6.2 mi North - - N/A   Partly Cloudy
8:55 PM 48.2 °F 37.4 °F 66% 29.77 in 6.2 mi North - - N/A   Partly Cloudy
9:00 PM 49 °F 36 °F 51% 29.79 in 14 mi 31.3 mph - -   Partly Cloudy
9:25 PM 48.2 °F 35.6 °F 62% 29.80 in 6.2 mi North - - N/A   Scattered Clouds
9:55 PM 48.2 °F 35.6 °F 62% 29.80 in 6.2 mi North - - N/A   Partly Cloudy
10:00 PM 47 °F 36 °F 54% 29.81 in 13 mi 38.0 mph - -   Scattered Clouds
10:25 PM 46.4 °F 35.6 °F 66% 29.80 in 6.2 mi North - - N/A   Unknown
10:55 PM 46.4 °F 35.6 °F 66% 29.83 in 6.2 mi North - - N/A   Unknown
11:00 PM 47 °F 36 °F 56% 29.83 in 14 mi 31.3 mph - -  
11:25 PM 46.4 °F 37.4 °F 71% 29.83 in 6.2 mi North - - N/A   Unknown
11:55 PM 46.4 °F 35.6 °F 66% 29.83 in 6.2 mi North - - N/A   Partly Cloudy